Location: Arroyo Grande
(40.2671°N, 4.2512°W)
Time: 17:01:20
(UTC+00:00)

YAOGAN 1 - Pass Details

Date: 03 February 2023
Orbit: 616 x 618 km, 97.8° (Epoch: 22 March)

Event Time Altitude Azimuth Distance (km) Brightness Sun altitude
Rises 19:41:16 0° 186° (S) 2,876 6.1 -23.8°
Reaches altitude 10° 19:43:35 10° 195° (SSW) 1,976 5.3 -24.3°
Maximum altitude 19:47:33 36° 263° (W) 993 4.1 -25.0°
Drops below altitude 10° 19:51:32 10° 330° (NNW) 1,991 5.5 -25.8°
Sets 19:53:53 0° 339° (NNW) 2,902 6.3 -26.2°
